• In Hungary
  • List of Countries
  • For 7 days
  • Water Temperature
  • Satellite Maps
  • Weather Map
  • News
  • Weather Widgets
  • user-avatar
    Login

    Hourly Weather Shandalovo

    Today, 19 August, Sunday

    Time Temperature Precipitation Wind Pressure Humidity
    00:00 +15°C° 0 mm 2 mps 747 mmHg 86%
    01:00 +15°C° 0 mm 2 mps 747 mmHg 87%
    02:00 +14°C° 0 mm 2 mps 747 mmHg 87%
    03:00 +14°C° 0 mm 2 mps 747 mmHg 88%
    04:00 +14°C° 0 mm 2 mps 746 mmHg 88%
    05:00 +14°C° 0 mm 2 mps 746 mmHg 89%
    06:00 +16°C° 0 mm 3 mps 746 mmHg 83%
    07:00 +18°C° 0 mm 3 mps 746 mmHg 78%
    08:00 +20°C° 0 mm 3 mps 746 mmHg 72%
    09:00 +21°C° 0 mm 4 mps 746 mmHg 68%
    10:00 +23°C° 0 mm 4 mps 745 mmHg 65%
    11:00 +25°C° 0 mm 4 mps 745 mmHg 62%
    12:00 +25°C° 0.5 mm 4 mps 745 mmHg 65%
    13:00 +25°C° 0.5 mm 4 mps 744 mmHg 68%
    14:00 +25°C° 0.5 mm 4 mps 744 mmHg 72%
    15:00 +25°C° 0.5 mm 4 mps 744 mmHg 75%
    16:00 +24°C° 0.5 mm 3 mps 744 mmHg 79%
    17:00 +24°C° 0.5 mm 3 mps 743 mmHg 83%
    18:00 +21°C° 0.1 mm 3 mps 743 mmHg 87%
    19:00 +20°C° 0.1 mm 2 mps 743 mmHg 91%
    20:00 +18°C° 0.1 mm 2 mps 743 mmHg 94%
    21:00 +18°C° 0 mm 2 mps 743 mmHg 95%
    22:00 +17°C° 0 mm 2 mps 743 mmHg 95%
    23:00 +16°C° 0 mm 2 mps 743 mmHg 95%

    Tomorrow, 20 August, Monday

    Time Temperature Precipitation Wind Pressure Humidity
    00:00 +16°C° 0 mm 2 mps 743 mmHg 95%
    01:00 +15°C° 0 mm 2 mps 744 mmHg 94%
    02:00 +14°C° 0 mm 2 mps 744 mmHg 94%
    03:00 +14°C° 0 mm 2 mps 743 mmHg 94%
    04:00 +14°C° 0 mm 2 mps 743 mmHg 94%
    05:00 +14°C° 0 mm 2 mps 743 mmHg 95%
    06:00 +16°C° 0 mm 2 mps 743 mmHg 91%
    07:00 +17°C° 0 mm 2 mps 743 mmHg 88%
    08:00 +19°C° 0 mm 2 mps 743 mmHg 85%
    09:00 +20°C° 0 mm 2 mps 743 mmHg 80%
    10:00 +21°C° 0 mm 3 mps 743 mmHg 74%
    11:00 +24°C° 0 mm 3 mps 743 mmHg 69%
    12:00 +24°C° 0.2 mm 3 mps 743 mmHg 68%
    13:00 +24°C° 0.2 mm 3 mps 742 mmHg 67%
    14:00 +25°C° 0.2 mm 4 mps 742 mmHg 66%
    15:00 +24°C° 0.2 mm 3 mps 742 mmHg 69%
    16:00 +24°C° 0.2 mm 3 mps 741 mmHg 72%
    17:00 +24°C° 0.2 mm 2 mps 741 mmHg 75%
    18:00 +21°C° 0.2 mm 2 mps 741 mmHg 80%
    19:00 +20°C° 0.2 mm 2 mps 740 mmHg 84%
    20:00 +19°C° 0.2 mm 2 mps 740 mmHg 88%
    21:00 +19°C° 0.1 mm 3 mps 740 mmHg 89%
    22:00 +19°C° 0.1 mm 3 mps 739 mmHg 90%
    23:00 +18°C° 0.1 mm 4 mps 739 mmHg 90%

    Day after tomorrow, 21 August, Tuesday

    Time Temperature Precipitation Wind Pressure Humidity
    00:00 +18°C° 0 mm 4 mps 738 mmHg 90%
    01:00 +18°C° 0 mm 4 mps 738 mmHg 90%
    02:00 +18°C° 0 mm 4 mps 737 mmHg 90%
    03:00 +18°C° 0.2 mm 4 mps 737 mmHg 91%
    04:00 +17°C° 0.2 mm 5 mps 736 mmHg 92%
    05:00 +17°C° 0.2 mm 5 mps 735 mmHg 93%
    06:00 +17°C° 0.7 mm 5 mps 735 mmHg 92%
    07:00 +17°C° 0.7 mm 5 mps 735 mmHg 91%
    08:00 +19°C° 0.7 mm 6 mps 735 mmHg 90%
    09:00 +19°C° 0.4 mm 6 mps 735 mmHg 86%
    10:00 +19°C° 0.4 mm 6 mps 735 mmHg 82%
    11:00 +20°C° 0.4 mm 6 mps 736 mmHg 79%
    12:00 +20°C° 0.3 mm 6 mps 736 mmHg 75%
    13:00 +20°C° 0.3 mm 6 mps 736 mmHg 71%
    14:00 +20°C° 0.3 mm 6 mps 736 mmHg 66%
    15:00 +19°C° 0.1 mm 6 mps 737 mmHg 66%
    16:00 +17°C° 0.1 mm 5 mps 737 mmHg 66%
    17:00 +17°C° 0.1 mm 5 mps 738 mmHg 65%
    18:00 +15°C° 0 mm 4 mps 738 mmHg 70%
    19:00 +14°C° 0 mm 4 mps 739 mmHg 75%
    20:00 +12°C° 0 mm 3 mps 739 mmHg 81%
    21:00 +12°C° 0 mm 4 mps 739 mmHg 82%
    22:00 +12°C° 0 mm 4 mps 740 mmHg 84%
    23:00 +12°C° 0 mm 4 mps 740 mmHg 85%

    22 August, Wednesday

    Time Temperature Precipitation Wind Pressure Humidity
    00:00 +11°C° 0 mm 4 mps 741 mmHg 87%
    01:00 +10°C° 0 mm 4 mps 741 mmHg 89%
    02:00 +10°C° 0 mm 3 mps 742 mmHg 90%
    03:00 +9°C° 0 mm 3 mps 742 mmHg 90%
    04:00 +9°C° 0 mm 3 mps 742 mmHg 90%
    05:00 +9°C° 0 mm 3 mps 743 mmHg 90%
    06:00 +10°C° 0 mm 4 mps 743 mmHg 82%
    07:00 +11°C° 0 mm 4 mps 744 mmHg 74%
    08:00 +13°C° 0 mm 5 mps 744 mmHg 66%
    09:00 +14°C° 0 mm 5 mps 745 mmHg 61%
    10:00 +15°C° 0 mm 5 mps 745 mmHg 55%
    11:00 +15°C° 0 mm 5 mps 745 mmHg 50%
    12:00 +16°C° 0 mm 5 mps 745 mmHg 49%
    13:00 +16°C° 0 mm 5 mps 746 mmHg 48%
    14:00 +17°C° 0 mm 5 mps 746 mmHg 47%
    15:00 +18°C° 0 mm 4 mps 746 mmHg 50%
    16:00 +17°C° 0 mm 3 mps 746 mmHg 53%
    17:00 +17°C° 0 mm 2 mps 747 mmHg 56%
    18:00 +15°C° 0 mm 2 mps 747 mmHg 62%
    19:00 +13°C° 0 mm 2 mps 747 mmHg 67%
    20:00 +11°C° 0 mm 1 mps 747 mmHg 73%
    21:00 +11°C° 0 mm 1 mps 748 mmHg 75%
    22:00 +10°C° 0 mm 1 mps 748 mmHg 77%
    23:00 +10°C° 0 mm 1 mps 748 mmHg 80%

    23 August, Thursday

    Time Temperature Precipitation Wind Pressure Humidity
    00:00 +9°C° 0 mm 1 mps 749 mmHg 81%
    01:00 +9°C° 0 mm 1 mps 749 mmHg 83%
    02:00 +9°C° 0 mm 1 mps 749 mmHg 84%
    03:00 +9°C° 0 mm 1 mps 749 mmHg 85%
    04:00 +8°C° 0 mm 1 mps 749 mmHg 85%
    05:00 +8°C° 0 mm 1 mps 749 mmHg 86%
    06:00 +9°C° 0 mm 2 mps 749 mmHg 79%
    07:00 +12°C° 0 mm 2 mps 749 mmHg 73%
    08:00 +15°C° 0 mm 2 mps 749 mmHg 66%
    09:00 +16°C° 0 mm 3 mps 749 mmHg 61%
    10:00 +17°C° 0 mm 3 mps 749 mmHg 56%
    11:00 +19°C° 0 mm 3 mps 749 mmHg 50%
    12:00 +19°C° 0 mm 3 mps 748 mmHg 50%
    13:00 +20°C° 0 mm 3 mps 748 mmHg 49%
    14:00 +21°C° 0 mm 3 mps 748 mmHg 48%
    15:00 +20°C° 0 mm 3 mps 748 mmHg 52%
    16:00 +20°C° 0 mm 3 mps 747 mmHg 57%
    17:00 +20°C° 0 mm 2 mps 747 mmHg 61%
    18:00 +18°C° 0 mm 2 mps 747 mmHg 67%
    19:00 +16°C° 0 mm 2 mps 747 mmHg 74%
    20:00 +14°C° 0 mm 2 mps 747 mmHg 80%
    21:00 +13°C° 0 mm 2 mps 747 mmHg 83%
    22:00 +12°C° 0 mm 2 mps 747 mmHg 86%
    23:00 +12°C° 0 mm 2 mps 747 mmHg 88%

    24 August, Friday

    Time Temperature Precipitation Wind Pressure Humidity
    00:00 +10°C° 0 mm 2 mps 747 mmHg 90%
    01:00 +10°C° 0 mm 2 mps 747 mmHg 91%
    02:00 +10°C° 0 mm 2 mps 747 mmHg 92%
    03:00 +10°C° 0 mm 2 mps 747 mmHg 93%
    04:00 +9°C° 0 mm 2 mps 747 mmHg 93%
    05:00 +9°C° 0 mm 2 mps 747 mmHg 93%
    06:00 +12°C° 0 mm 2 mps 747 mmHg 86%
    07:00 +14°C° 0 mm 2 mps 747 mmHg 79%
    08:00 +16°C° 0 mm 2 mps 747 mmHg 71%
    09:00 +18°C° 0 mm 3 mps 747 mmHg 66%
    10:00 +20°C° 0 mm 3 mps 747 mmHg 60%
    11:00 +21°C° 0 mm 3 mps 747 mmHg 54%
    12:00 +22°C° 0 mm 3 mps 747 mmHg 53%
    13:00 +24°C° 0 mm 3 mps 747 mmHg 51%
    14:00 +24°C° 0 mm 3 mps 747 mmHg 50%
    15:00 +24°C° 0 mm 3 mps 746 mmHg 54%
    16:00 +23°C° 0 mm 2 mps 746 mmHg 59%
    17:00 +23°C° 0 mm 2 mps 746 mmHg 63%
    18:00 +20°C° 0 mm 2 mps 746 mmHg 69%
    19:00 +18°C° 0 mm 2 mps 746 mmHg 76%
    20:00 +16°C° 0 mm 2 mps 746 mmHg 82%
    21:00 +15°C° 0 mm 2 mps 746 mmHg 84%
    22:00 +14°C° 0 mm 2 mps 746 mmHg 86%
    23:00 +14°C° 0 mm 2 mps 746 mmHg 88%
    Show more